This is the latest recevied weather packets stored in our database for station/object KK6LVQ-13. If no packets are shown the sender has not sent any weather packets the latest 10 day(s).
| Time | Temp. | Humidity | Pressure | Rain* | Wind** | Luminosity | Snow |
|---|---|---|---|---|---|---|---|
| 1778175032 | 18.33° C | 77% | 1023.6 hPa | 0 mm | - | 612 W/m² | - |
| 1778174727 | 18.33° C | 78% | 1023.6 hPa | 0 mm | - | 601 W/m² | - |
| 1778174424 | 17.78° C | 78% | 1023.7 hPa | 0 mm | - | 586 W/m² | - |
| 1778174120 | 17.78° C | 78% | 1023.8 hPa | 0 mm | - | 575 W/m² | - |
| 1778173817 | 17.78° C | 78% | 1023.7 hPa | 0 mm | - | 563 W/m² | - |
| 1778173514 | 17.22° C | 79% | 1023.7 hPa | 0 mm | - | 551 W/m² | - |
| 1778173211 | 17.22° C | 80% | 1023.8 hPa | 0 mm | - | 537 W/m² | - |
| 1778172907 | 16.67° C | 81% | 1023.8 hPa | 0 mm | - | 524 W/m² | - |
| 1778172603 | 16.67° C | 81% | 1023.9 hPa | 0 mm | - | 512 W/m² | - |
| 1778172299 | 16.11° C | 82% | 1024 hPa | 0 mm | - | 500 W/m² | - |
| 1778171996 | 16.11° C | 82% | 1023.8 hPa | 0 mm | - | 484 W/m² | - |
| 1778171694 | 15.56° C | 83% | 1023.9 hPa | 0 mm | - | 471 W/m² | - |
| 1778171391 | 15.56° C | 83% | 1024.1 hPa | 0 mm | - | 455 W/m² | - |
| 1778171086 | 15.56° C | 83% | 1024.1 hPa | 0 mm | - | 442 W/m² | - |
| 1778170783 | 16.11° C | 83% | 1024 hPa | 0 mm | - | 426 W/m² | - |
| 1778170479 | 16.11° C | 83% | 1024.2 hPa | 0 mm | - | 411 W/m² | - |
| 1778170176 | 15.56° C | 83% | 1024.1 hPa | 0 mm | - | 396 W/m² | - |
| 1778169872 | 14.44° C | 87% | 1024.1 hPa | 0 mm | - | 380 W/m² | - |
| 1778169568 | 13.89° C | 88% | 1024.1 hPa | 0 mm | - | 362 W/m² | - |
| 1778169264 | 13.33° C | 90% | 1024.2 hPa | 0 mm | - | 343 W/m² | - |
| 1778168962 | 13.33° C | 90% | 1024.2 hPa | 0 mm | - | 327 W/m² | - |
| 1778168658 | 13.33° C | 89% | 1024.2 hPa | 0 mm | - | 310 W/m² | - |
| 1778168356 | 13.33° C | 88% | 1024.2 hPa | 0 mm | - | 294 W/m² | - |
| 1778168052 | 13.33° C | 90% | 1024.3 hPa | 0 mm | - | 277 W/m² | - |
| 1778167748 | 12.22° C | 92% | 1024.2 hPa | 0 mm | - | 260 W/m² | - |
* Rain latest hour (hover to see other rain measurements)
** Current wind speed in m/s (hover to see current wind gust speed)